Location: Aranbee
(34.0885°N, 118.2342°W)
Time: 03:20:31
(UTC+00:00)

Courier 1B Rocket - Pass Details

Date: 28 November 2020
Orbit: 920 x 1202 km, 28.2° (Epoch: 16 January)

Event Time Altitude Azimuth Distance (km) Brightness Sun altitude
Exits shadow 13:43:27 - 243° (WSW) 4,131 7.9 -11.4°
Rises 13:43:35 0° 243° (WSW) 4,087 7.8 -11.3°
Reaches altitude 10° 13:46:34 10° 237° (WSW) 3,127 7.3 -10.7°
Maximum altitude 13:53:57 46° 167° (SSE) 1,544 6.3 -9.3°
Drops below altitude 10° 14:01:08 10° 97° (E) 3,045 9.1 -7.9°
Sets 14:03:59 0° 91° (E) 3,972 9.8 -7.4°
